Showing default

KORSAT 7, 58463

Orbit data source: Space-Track

KORSAT 7, 58463 is a payload satellite owned by DAPA (KR) in SSO that was launched on Fri, 01 Dec 2023 UTC via an FALCON 9 launch vehicle from the Air Force Western Test Range (AFWTR). Payload-class satellites include a variety of spacecraft equipped with specific instruments for various scientific and technological missions. These include communications satellites like Starlink; space stations such as the ISS; scientific satellites like the Hubble; Earth observation satellites from companies like Planet Labs, Umbra, and HawkEye 360; GPS; miniature CubeSats for education and research; and military/defense satellites.

Loading next visibility...
Identifier
58463, 2023-185B
Orbit
SSO
Country
Flag of KRKR / SKOR
Related business
Manufacturer
KAI
Mission
Operational Defense Imaging
Bus & Motor
CAS500?, Unknown motor
Mass
~800 kg wet, ~750 kg dry
Launch date (UTC)
2023-12-01 (3 years ago)
Launch vehicle
FALCON 9
Launch site
Air Force Western Test Range (AFWTR)
Object type
Payload
Rocket body
Debris
Shape & HBR
Hex Box + 3 Pan, 3.0 m
Radar Cross Section
10.467 m², Large (>1 m²)

Expand to show TLE details & history
Last TLE update: 1 week ago

TLE from 1 week ago
0 KORSAT 7
1 58463U 23185B   26155.25355323  .00002428  00000-0  19456-3 0  9996
2 58463  97.6300 219.7920 0026263  10.7410 349.4370 15.00815805137346
Epoch: 2026-06-04T06:05Z
TLE epoch observation values (Epoch: 2026-06-04T06:05:06.999Z)
Latitude
0.00007°
Longitude
-124.18764°
Altitude
549.511 km
Speed
7.597 km/s
True Right ascension
14h 39m 10s
True Declination
0° 00' 00"
Sunlit
Object was in full shadow at epoch
Visualization orbit readout
Latitude
Unknown
Longitude
Unknown
Altitude
Unknown
Speed
Unknown
Apparent Right ascension
Unknown
Apparent Declination
Unknown
Sunlit
N/A
Visualization observer readout
Local Sidereal Time
06:07:54
Azimuth
Unknown
Elevation
Unknown
Doppler factor
Unknown
Orbital elements
Apogee altitude
579.606 km
Perigee altitude
543.155 km
Semi-major axis
6,939.517 km
Eccentricity
0.00263
Inclination
97.63°
RAAN
219.792°
Arg. of periapsis
10.741°
True anomaly
349.38165°
Mean anomaly
349.437°
Eccentric anomaly
349.40934°
Mean motion
3.75448 °/min
Orbital period
95.89 mins
BSTAR
0.00019456
Loading maneuver chart data...
Computing Atmospheric mass density...
Loading historical data...
Loading historical data...
Loading historical data...
Loading historical data...
Loading historical data...
Loading historical data...
Loading historical data...

Documentation

Showing up to 5 results
|